Location: Guadalupe River State Park
(29.8761°N, 98.5041°W)
Time: 07:24:06
(UTC-06:00)

N. Korean satellite - Visible Passes

Search period start: 17 November 2019 00:00
Search period end: 27 November 2019 00:00
Orbit: 456 x 506 km, 97.2° (Epoch: 16 November)

Date Brightness Start Highest point End Pass type
(mag) Time Alt. Az. Time Alt. Az. Time Alt. Az.
17 Nov 8.9 05:48:22 10° NE 05:51:34 28° E 05:54:43 10° SSE visible
18 Nov 10.1 05:24:29 10° ENE 05:26:04 12° E 05:27:39 10° ESE visible
19 Nov 6.6 06:30:32 10° N 06:34:11 64° WNW 06:37:44 10° SSW visible
19 Nov 9.7 18:34:05 10° SW 18:36:40 19° W 18:39:18 10° NW visible
20 Nov 7.6 06:05:14 10° NNE 06:08:49 50° E 06:12:19 10° S visible
20 Nov 8.0 18:07:46 10° S 18:11:12 43° W 18:14:43 10° NNW visible
21 Nov 9.4 05:40:31 10° NE 05:43:22 21° E 05:46:10 10° SSE visible
22 Nov 10.3 18:53:01 10° WSW 18:53:57 11° W 18:54:53 10° WNW visible
23 Nov 6.5 06:22:20 10° N 06:25:59 85° WNW 06:29:34 10° SSW visible
23 Nov 9.3 18:25:26 10° SSW 18:28:25 24° W 18:31:29 10° NW visible
24 Nov 8.2 05:57:11 10° NNE 06:00:35 37° E 06:03:55 10° SSE visible
24 Nov 7.4 17:59:24 10° S 18:02:59 58° W 18:06:38 10° NNW visible
25 Nov 9.8 05:32:45 10° NE 05:35:06 16° E 05:37:25 10° SE visible
26 Nov 6.9 06:39:37 10° N 06:43:06 44° WNW 06:46:30 10° SSW visible
26 Nov 10.0 18:43:39 10° SW 18:45:40 14° W 18:47:43 10° WNW visible
